ICEYE-X4 (44390 NORAD) Tracking and Keplerian Element Data

This shows tracking and keplerian element data for the satellite.

Feedback or suggestion? Click here.




ElementValue
Catalog44390
NameICEYE-X4
Epoch Orbit427
Epoch Day214.91745865
Epoch Year2019
RAAN176.5138
Inclination97.682
Eccentricity0.0021876
Argument of Perigee137.5663
Mean Anonmoly222.7254
Mean Motion14.96485899
Decay Rate5.26E-06
L11 44390U 19038D 19214.91745865 .00000526 00000-0 51207-4 0 9995
L22 44390 97.6820 176.5138 0021876 137.5663 222.7254 14.96485899 4270

Live tracking and technical data element details for ICEYE-X4 (NORAD 44390). ICEYE-X4 can be tracked NOW for your location showing map with azimuth and elevation plus other details from your city location.

Track the satellite on the map from your city or location and see movement details for azimuth, elevation, latitude, longitude, range, height, and movement on the map or in text.







IsCatalogInMostPopularTable: catalog: 44390, numindb: 59
Update: records affected: 1



GetName: 44390 ICEYE-X4

Hit Count: updated at: Wed, 23 Oct 2019 00:03:51 GMT